User: anonymous   Login
Location: Mississauga
(43.5802°N, 79.6166°W)
Time: 02:59:40
(UTC-04:00)
Language:

Cosmos 1437 Rocket - Orbit

View from above orbital plane
View from above orbital plane
View from above satellite
View from above satellite

Ground track
Ground track

The orbit data is extracted from the following two-line orbital elements,

1 13771U 83003B   16270.54321130  .00000059  00000-0  20577-5 0  9998
2 13771  81.1556 306.9673 0040632 156.5166 203.7927 15.09504418834019
Epoch (UTC): 26 September 2016 13:02:13
Eccentricity: 0.0040632
inclination: 81.1556°
perigee height: 509 km
apogee height: 566 km
right ascension of ascending node: 306.9673°
argument of perigee: 156.5166°
revolutions per day: 15.09504418
mean anomaly at epoch: 203.7927°
orbit number at epoch: 83401

The dashed part of the orbit path shows where the satellite is in the earth's shadow,  

DLR